Tracking 19242 objects as of 16-Aug-2018
HD Live streaming from Space Station
objects crossing your sky now

NOAA 16 DEB

Track NOAA 16 DEB now!
10-day predictions


NORAD ID: 41259
Int'l Code: 2000-055FK
Perigee: 710.9 km
Apogee: 854.9 km
Inclination: 98.8 °
Period: 100.4 minutes
Semi major axis: 7153 km
RCS: Unknown
Launch date: September 21, 2000
Source: United States (US)
Launch site: AIR FORCE WESTERN TEST RANGE (AFWTR)

Note: This is SATELLITE DEBRIS
aabbcc
Your satellite tracking list
Your tracking list is empty




NASA's NSSDC Master Catalog

Two Line Element Set (TLE):
1 41259U 00055FK  18226.24607109 +.00001343 +00000-0 +46306-3 0  9992
2 41259 098.8392 327.7937 0100611 053.7540 307.2892 14.34783474138865
Source of the keplerian elements: AFSPC